COSMOS 2251 DEB, 37336

Orbit data source: Space-Track

COSMOS 2251 DEB, 37336 is space debris in LEO originally from a launch on Wed, 16 Jun 1993 UTC launched from the Plesetsk Missile And Space Complex (PKMTR). The debris from Iridium 33, an American commercial communications satellite, has been tracked extensively since its accidental collision with the defunct Russian satellite Cosmos 2251 in 2009. This event, occurring at high speed in low Earth orbit (LEO), generated thousands of pieces of space debris, significantly increasing the risk of further collisions. The Iridium 33 debris cloud has impacted space traffic management and orbital debris mitigation strategies, making it a subject of ongoing study in space situational awareness.

Loading next visibility...
Identifier
37336, 1993-036BLC
Orbit
LEO
Country
Flag of CISCIS
Related business
Manufacturer
Unknown
Mission
Spacecraft
Bus & Motor
Unknown
Mass
Unknown
Launch date (UTC)
1993-06-16 (33 years ago)
Launch vehicle
Unknown
Launch site
Plesetsk Missile And Space Complex (PKMTR)
Object type
Payload
Rocket body
Debris
Shape & HBR
Unknown shape, 0.1 m
Radar Cross Section
Small (<0.1 m²)

Expand to show TLE details & history
Last TLE update: 4 days ago

TLE from 4 days ago
0 COSMOS 2251 DEB
1 37336U 93036BLC 26261.12864567  .00000091  00000-0  42540-4 0  9998
2 37336  74.0424 181.1198 0030232 194.6704 165.3573 14.32853515691211
Epoch: 2026-09-18T03:05Z
TLE epoch observation values (Epoch: 2026-09-18T03:05:14.985Z)
Latitude
-0.00007°
Longitude
137.75137°
Altitude
805.768 km
Speed
7.44 km/s
True Right ascension
12h 04m 28s
True Declination
0° 00' 00"
Sunlit
Object was in daylight at epoch
Visualization orbit readout
Latitude
Unknown
Longitude
Unknown
Altitude
Unknown
Speed
Unknown
Apparent Right ascension
Unknown
Apparent Declination
Unknown
Sunlit
N/A
Visualization observer readout
Local Sidereal Time
13:11:28
Azimuth
Unknown
Elevation
Unknown
Doppler factor
Unknown
Orbital elements
Apogee altitude
801.475 km
Perigee altitude
758.195 km
Semi-major axis
7,157.972 km
Eccentricity
0.00302
Inclination
74.0424°
RAAN
181.1198°
Arg. of periapsis
194.6704°
True anomaly
165.44456°
Mean anomaly
165.3573°
Eccentric anomaly
165.40096°
Mean motion
3.58392 °/min
Orbital period
100.45 mins
BSTAR
0.00004254

Documentation

Showing up to 5 results
|